Gulkana, AK

1:12 PM AKDT on May 29, 2017 (GMT -0800)
Gulkana

Weather History for PAGK - January, 2014

Change the Weather History Date:

Wednesday, January 15, 2014

  Actual Average Record
Temperature  
Mean Temperature 19 °F -  
Max Temperature 35 °F 0 °F 45 °F (2009)
Min Temperature 3 °F -16 °F -55 °F (1973)
Degree Days  
Heating Degree Days 46    
Moisture  
Dew Point 24 °F    
Average Humidity 86    
Maximum Humidity 92    
Minimum Humidity 79    
Precipitation  
Precipitation 0.00 in - - ()
Sea Level Pressure  
Sea Level Pressure 29.73 in    
Wind  
Wind Speed 10 mph (South)    
Max Wind Speed 23 mph    
Max Gust Speed 28 mph    
Averages and records for this station are not official NWS values.
T = Trace of Precipitation, MM = Missing Value Source: NWS Daily Summary

Daily Weather History Graph

Daily Weather History Graph

Search for Another Location

Airport or City:

Trip Planner

Search our weather history database for the weather conditions in past years. The results will help you decide how hot, cold, wet, or windy it might be!

Date:

Astronomy

Jan. 15, 2014 Rise Set
Actual Time 9:47 AM AKST 3:56 PM AKST
Civil Twilight 8:48 AM AKST 4:55 PM AKST
Nautical Twilight 7:49 AM AKST 5:53 PM AKST
Astronomical Twilight 6:55 AM AKST 6:47 PM AKST
Moon 4:26 PM AKST (1/15) 8:47 AM AKST (1/15)
Length of Visible Light 8h 06m
Length of Day
6h 08m
Full, 100% of the Moon is Illuminated
Jan 15
Full
Jan 15
Full
Jan 23
Last Quarter
Jan 30
New
Feb 6
First Quarter

Hourly Weather History & Observations

Time (AKST) Temp. Windchill Dew Point Humidity Pressure Visibility Wind Dir Wind Speed Gust Speed Precip Events Conditions
12:16 AM 18.0 °F 12.7 °F 15.1 °F 88% 29.45 in - SW 3.5 mph - N/A   Scattered Clouds
12:53 AM 16.0 °F - 12.9 °F 88% 29.63 in - Calm Calm - N/A   Partly Cloudy
1:53 AM 15.1 °F 9.4 °F 12.0 °F 88% 29.67 in - WSW 3.5 mph - N/A   Mostly Cloudy
3:53 AM 21.9 °F 9.8 °F 19.0 °F 89% 29.74 in - South 12.7 mph - N/A   Clear
4:53 AM 21.9 °F 9.8 °F 19.0 °F 89% 29.77 in - SSE 12.7 mph - N/A   Clear
5:53 AM 21.9 °F 9.8 °F 18.0 °F 85% 29.79 in - South 12.7 mph - N/A   Clear
6:53 AM 24.1 °F 12.0 °F 19.0 °F 81% 29.79 in - SSE 13.8 mph - N/A   Clear
7:53 AM 27.0 °F 15.6 °F 21.9 °F 81% 29.80 in - South 13.8 mph - N/A   Mostly Cloudy
8:53 AM 27.0 °F 15.2 °F 23.0 °F 85% 29.80 in - SSE 15.0 mph - N/A   Mostly Cloudy
9:53 AM 27.0 °F 16.7 °F 23.0 °F 85% 29.80 in - South 11.5 mph - N/A   Overcast
10:53 AM 28.0 °F 16.5 °F 24.1 °F 85% 29.79 in - South 15.0 mph - N/A   Overcast
11:53 AM 28.0 °F 17.5 °F 24.1 °F 85% 29.78 in - South 12.7 mph - N/A   Scattered Clouds
12:53 PM 28.9 °F 19.8 °F 25.0 °F 85% 29.76 in - South 10.4 mph - N/A   Scattered Clouds
1:53 PM 30.0 °F 19.5 °F 27.0 °F 88% 29.75 in - South 13.8 mph - N/A   Overcast
2:53 PM 30.0 °F 22.4 °F 27.0 °F 88% 29.75 in - SSE 8.1 mph - N/A   Overcast
3:53 PM 30.0 °F 20.5 °F 27.0 °F 88% 29.75 in - SSE 11.5 mph - N/A   Overcast
4:53 PM 30.0 °F 19.5 °F 28.0 °F 92% 29.74 in - SSE 13.8 mph - N/A   Overcast
5:53 PM 30.9 °F 18.7 °F 28.0 °F 89% 29.73 in - South 19.6 mph - N/A   Mostly Cloudy
6:53 PM 32.0 °F 19.5 °F 28.9 °F 88% 29.72 in - SSE 21.9 mph 27.6 mph N/A   Partly Cloudy
7:53 PM 32.0 °F 20.8 °F 28.9 °F 88% 29.71 in - South 17.3 mph - N/A   Mostly Cloudy
8:53 PM 34.0 °F 23.4 °F 30.0 °F 85% 29.71 in - South 17.3 mph - N/A   Scattered Clouds
9:53 PM 34.0 °F 21.8 °F 30.0 °F 85% 29.70 in - SSE 23.0 mph 27.6 mph N/A   Clear
10:53 PM 35.1 °F 24.1 °F 30.0 °F 82% 29.69 in - South 19.6 mph - N/A   Clear
11:53 PM 35.1 °F 24.5 °F 30.0 °F 82% 29.68 in - SSE 18.4 mph - N/A   Clear